"2009-10-11 00:00:00",1316446,2.496,122.3,10.18,1.01,-2.164,97.42588,-7.255,-5.893,91.8,0,109.1,13.82,-6.53,84.3
"2009-10-11 00:00:30",1316447,1.903,122.1,16.44,1.243,-3.897,97.42845,-7.249,-6.017,91.7,0,109.1,13.82,-6.52,84.1
"2009-10-11 00:01:00",1316448,0.824,105.7,10.77,0.051,-5.907,97.43294,-7.237,-6.078,91.6,0,109.1,13.85,-6.51,67.7
"2009-10-11 00:01:30",1316449,1.824,130.9,13.4,1.202,-4.774,97.43211,-7.239,-6.012,91.7,0,109.1,13.82,-6.51,92.9
"2009-10-11 00:02:00",1316450,2.446,126.8,10.42,1.211,-3.146,97.43436,-7.234,-6.004,91.7,0,109.1,13.82,-6.51,88.8
"2009-10-11 00:02:30",1316451,2.082,132.3,7.242,1.139,-4.064,97.43551,-7.231,-5.909,91.8,0,109.1,13.82,-6.50,94.3
"2009-10-11 00:03:00",1316452,3.275,145,4.749,0.902,-1.767,97.4358,-7.23,-5.891,91.8,0,109.1,13.82,-6.50,107.0
"2009-10-11 00:03:30",1316453,3.121,146,4.837,1.015,-2.638,97.43722,-7.226,-5.921,91.8,0,109.1,13.82,-6.50,108.0
"2009-10-11 00:04:00",1316454,2.494,149.5,8.37,1.155,-3.862,97.43832,-7.224,-6.049,91.7,0,109.1,13.82,-6.50,111.5
"2009-10-11 00:04:30",1316455,2.306,148.5,10.38,1.154,-4.016,97.43688,-7.227,-5.994,91.7,0,109.1,13.82,-6.50,110.5
"2009-10-11 00:05:00",1316456,2.344,162.4,7.923,1.23,-3.716,97.43578,-7.23,-6.054,91.7,0,109.1,13.82,-6.50,124.4
"2009-10-11 00:05:30",1316457,2.162,158.3,6.859,1.172,-3.614,97.43857,-7.223,-6.034,91.7,0,109.1,13.82,-6.50,120.3
"2009-10-11 00:06:00",1316458,3.068,165.2,4.884,0.887,-1.717,97.43464,-7.233,-5.855,91.9,0,109.1,13.82,-6.51,127.2
"2009-10-11 00:06:30",1316459,2.57,161.7,5.765,1.121,-2.397,97.43575,-7.23,-5.917,91.8,0,109.1,13.82,-6.50,123.7
"2009-10-11 00:07:00",1316460,1.694,150.7,8.53,1.147,-4.295,97.43459,-7.233,-6.006,91.7,0,109.1,13.82,-6.51,112.7
"2009-10-11 00:07:30",1316461,1.923,149.2,4.305,1.164,-4.327,97.43685,-7.227,-5.981,91.7,0,109.1,13.82,-6.50,111.2
"2009-10-11 00:08:00",1316462,1.507,141.2,4.715,0.829,-5.388,97.43822,-7.224,-6.062,91.7,0,109.1,13.82,-6.50,103.2
"2009-10-11 00:08:30",1316463,2.333,140.5,7.772,1.148,-3.686,97.44051,-7.218,-6.036,91.7,0,109.1,13.82,-6.49,102.5
"2009-10-11 00:09:00",1316464,3.266,138.8,5.337,0.984,-2.147,97.43996,-7.22,-5.817,91.9,0,109.1,13.82,-6.49,100.8
"2009-10-11 00:09:30",1316465,3.283,128.5,8.87,0.987,-2.437,97.44498,-7.207,-5.885,91.8,0,109.1,13.82,-6.48,90.5
"2009-10-11 00:10:00",1316466,2.771,127.7,6.11,1.161,-2.782,97.44222,-7.214,-5.883,91.8,0,109.1,13.82,-6.49,89.7
"2009-10-11 00:10:30",1316467,2.169,122.9,7.063,1.055,-4.722,97.44582,-7.205,-6.113,91.6,0,109.1,13.82,-6.48,84.9
"2009-10-11 00:11:00",1316468,2.538,125,6.496,1.164,-3.193,97.44416,-7.209,-5.908,91.8,0,109.1,13.82,-6.48,87.0
"2009-10-11 00:11:30",1316469,1.769,124,4.315,0.927,-4.818,97.44637,-7.203,-5.978,91.8,0,109.1,13.82,-6.48,86.0
"2009-10-11 00:12:00",1316470,2.892,130.4,6.21,1.052,-1.779,97.44471,-7.207,-5.849,91.9,0,109.1,13.82,-6.48,92.4
"2009-10-11 00:12:30",1316471,2.625,137.6,7.246,1.193,-2.59,97.44609,-7.204,-5.905,91.8,0,109.1,13.82,-6.48,99.6
"2009-10-11 00:13:00",1316472,2.605,135.7,6.252,1.127,-3.085,97.44637,-7.203,-5.939,91.8,0,109.1,13.81,-6.48,97.7
"2009-10-11 00:13:30",1316473,1.209,135.3,6.303,0.902,-4.766,97.44609,-7.204,-5.979,91.8,0,109.1,13.82,-6.48,97.3
"2009-10-11 00:14:00",1316474,1.906,139.3,5.993,1.184,-4.904,97.44637,-7.203,-6.108,91.6,0,109.1,13.82,-6.48,101.3
"2009-10-11 00:14:30",1316475,1.052,134.5,3.88,0.591,-5.707,97.44637,-7.203,-6.021,91.7,0,109.1,13.82,-6.48,96.5
"2009-10-11 00:15:00",1316476,3.402,142.2,3.816,0.235,-1.913,97.44637,-7.203,-5.926,91.8,0,109.1,13.82,-6.48,104.2
"2009-10-11 00:15:30",1316477,2.535,139.6,6.079,1.056,-2.309,97.44609,-7.204,-5.831,91.9,0,109.1,13.82,-6.48,101.6
"2009-10-11 00:16:00",1316478,2.39,138.7,7.419,1.122,-2.813,97.44609,-7.204,-5.909,91.9,0,109.1,13.82,-6.48,100.7
"2009-10-11 00:16:30",1316479,1.839,142.8,7.376,1.096,-3.948,97.44581,-7.205,-6.009,91.7,0,109.1,13.82,-6.48,104.8
"2009-10-11 00:17:00",1316480,1.409,164.5,9.59,1.044,-4.565,97.44637,-7.203,-5.962,91.8,0,109.1,13.82,-6.48,126.5
"2009-10-11 00:17:30",1316481,0.912,169.1,1.698,0.072,-5.662,97.44637,-7.203,-6.064,91.7,0,109.1,13.86,-6.48,131.1
"2009-10-11 00:18:00",1316482,2.268,171.5,6.806,1.173,-2.766,97.44609,-7.204,-5.924,91.8,0,109.1,13.83,-6.48,133.5
"2009-10-11 00:18:30",1316483,2.609,178.7,8.92,0.948,-1.432,97.44637,-7.203,-5.84,91.9,0,109.1,13.83,-6.48,140.7
"2009-10-11 00:19:00",1316484,2.343,172,9.74,1.151,-2.434,97.4458,-7.205,-5.936,91.8,0,109.1,13.83,-6.48,134.0
"2009-10-11 00:19:30",1316485,1.458,164,5.372,0.96,-4.631,97.44608,-7.204,-6.04,91.7,0,109.1,13.83,-6.48,126.0
"2009-10-11 00:20:00",1316486,2.09,158,5.819,1.196,-4.455,97.44552,-7.205,-5.969,91.8,0,109.1,13.83,-6.48,120.0
"2009-10-11 00:20:30",1316487,1.411,154.7,6.171,0.698,-5.363,97.44552,-7.205,-5.936,91.8,0,109.1,13.83,-6.48,116.7
"2009-10-11 00:21:00",1316488,1.931,165.6,4.51,1.101,-4.416,97.44523,-7.206,-6.085,91.7,0,109.1,13.83,-6.48,127.6
"2009-10-11 00:21:30",1316489,2.977,174.5,6.875,0.873,-1.444,97.44324,-7.211,-5.848,91.9,0,109.1,13.83,-6.48,136.5
"2009-10-11 00:22:00",1316490,2.954,179.2,7.087,1.038,-1.999,97.44382,-7.21,-5.88,91.9,0,109.1,13.83,-6.48,141.2
"2009-10-11 00:22:30",1316491,2.539,178.6,11.28,1.227,-3.07,97.44523,-7.206,-5.894,91.9,0,109.1,13.83,-6.48,140.6
"2009-10-11 00:23:00",1316492,2.99,169.2,12.72,1.151,-4.027,97.44382,-7.21,-6.056,91.7,0,109.1,13.83,-6.48,131.2
"2009-10-11 00:23:30",1316493,3.182,167.4,5.249,1.21,-3.122,97.44041,-7.218,-5.868,91.9,0,109.1,13.83,-6.49,129.4
"2009-10-11 00:24:00",1316494,3.239,162.4,9.81,1.181,-3.136,97.44296,-7.212,-6.038,91.8,0,109.1,13.83,-6.49,124.4
"2009-10-11 00:24:30",1316495,3.734,156.9,7.301,0.886,-1.453,97.43758,-7.226,-5.857,92,0,109.1,13.83,-6.50,118.9
"2009-10-11 00:25:00",1316496,3.513,173,7.673,0.914,-0.875,97.44126,-7.216,-5.865,92,0,109.1,13.83,-6.49,135.0
"2009-10-11 00:25:30",1316497,3.729,169.3,12.08,0.76,-1.387,97.44013,-7.219,-5.891,91.9,0,109.1,13.83,-6.49,131.3
"2009-10-11 00:26:00",1316498,2.348,149.7,6.261,1.201,-3.851,97.43871,-7.223,-6.056,91.8,0,109.1,13.82,-6.50,111.7
"2009-10-11 00:26:30",1316499,1.763,146.4,13.23,1.108,-4.537,97.43928,-7.221,-5.964,91.9,0,109.1,13.83,-6.49,108.4
"2009-10-11 00:27:00",1316500,2.298,162.5,11.25,1.179,-4.047,97.44041,-7.218,-6.072,91.8,0,109.1,13.82,-6.49,124.5
"2009-10-11 00:27:30",1316501,3.094,158.4,8.51,1.002,-1.699,97.44183,-7.215,-5.852,92,0,109.1,13.82,-6.49,120.4
"2009-10-11 00:28:00",1316502,3.609,154.1,8.69,0.703,-1.217,97.44324,-7.211,-5.85,92,0,109.1,13.82,-6.48,116.1
"2009-10-11 00:28:30",1316503,2.834,163.5,4.914,1.051,-1.721,97.44467,-7.208,-5.877,91.9,0,109.1,13.82,-6.48,125.5
"2009-10-11 00:29:00",1316504,2.497,157.9,11.02,1.056,-3.511,97.44495,-7.207,-5.977,91.9,0,109.1,13.82,-6.48,119.9
"2009-10-11 00:29:30",1316505,0.724,130.8,11.49,0.175,-6.26,97.44523,-7.206,-6.082,91.8,0,109.1,13.85,-6.48,92.8
"2009-10-11 00:30:00",1316506,0.424,140.9,10.4,0.213,-6.31,97.44324,-7.211,-6.129,91.7,0,109.1,13.85,-6.48,102.9
"2009-10-11 00:30:30",1316507,1.836,152.1,15.65,1.198,-3.179,97.44552,-7.205,-5.901,91.9,0,109.1,13.82,-6.48,114.1
"2009-10-11 00:31:00",1316508,2.698,178.2,8.06,0.971,-1.673,97.44552,-7.205,-5.882,92,0,109.1,13.82,-6.48,140.2
"2009-10-11 00:31:30",1316509,2.755,184.8,9.4,1.188,-1.839,97.4458,-7.205,-5.946,91.9,0,109.1,13.82,-6.48,146.8
"2009-10-11 00:32:00",1316510,2.02,213.7,8.9,1.024,-3.85,97.44637,-7.203,-5.976,91.9,0,109.1,13.83,-6.48,175.7
"2009-10-11 00:32:30",1316511,1.644,216.2,10.66,1.154,-5.435,97.4458,-7.205,-6.102,91.8,0,109.1,13.83,-6.48,178.2
"2009-10-11 00:33:00",1316512,1.272,200.6,9.46,0.938,-4.596,97.44637,-7.203,-6.003,91.9,0,109.1,13.83,-6.48,162.6
"2009-10-11 00:33:30",1316513,1.584,196.9,9.3,1.157,-3.708,97.44637,-7.203,-5.928,92,0,109.1,13.83,-6.48,158.9
"2009-10-11 00:34:00",1316514,2.551,189,7.154,1.091,-1.663,97.44637,-7.203,-5.899,92.1,0,109.1,13.84,-6.48,151.0
"2009-10-11 00:34:30",1316515,2.419,181.9,11.04,1.093,-1.774,97.44637,-7.203,-5.891,92.1,0,109.1,13.84,-6.48,143.9
"2009-10-11 00:35:00",1316516,1.581,167.7,8.79,1.175,-3.74,97.44637,-7.203,-6.048,91.9,0,109.1,13.84,-6.48,129.7
"2009-10-11 00:35:30",1316517,1.753,170,6.617,1.232,-3.802,97.44637,-7.203,-5.995,92,0,109.1,13.83,-6.48,132.0
"2009-10-11 00:36:00",1316518,1.306,169.4,8.42,1.082,-4.147,97.44637,-7.203,-5.964,92,0,109.1,13.84,-6.48,131.4
"2009-10-11 00:36:30",1316519,0.787,161.5,6.36,0.825,-6.044,97.44637,-7.203,-6.046,91.9,0,109.1,13.84,-6.48,123.5
"2009-10-11 00:37:00",1316520,2.176,164.7,9.46,1.14,-3.37,97.44637,-7.203,-5.987,92,0,109.1,13.84,-6.48,126.7
"2009-10-11 00:37:30",1316521,2.166,152.5,10.2,1.089,-3.289,97.44637,-7.203,-5.913,92,0,109.1,13.84,-6.48,114.5
"2009-10-11 00:38:00",1316522,1.664,145.5,8.23,1.146,-3.56,97.44637,-7.203,-5.892,92.1,0,109.1,13.84,-6.48,107.5
"2009-10-11 00:38:30",1316523,1.279,153.1,12.1,1.127,-4.758,97.44637,-7.203,-6.071,91.8,0,109.1,13.84,-6.48,115.1
"2009-10-11 00:39:00",1316524,1.082,139.3,7.923,1.015,-6.131,97.44637,-7.203,-6.063,91.9,0,109.1,13.84,-6.48,101.3
"2009-10-11 00:39:30",1316525,2.14,142.5,6.811,1.259,-4.63,97.44637,-7.203,-5.934,92,0,109.1,13.84,-6.48,104.5
"2009-10-11 00:40:00",1316526,1.385,142.5,5.956,1.179,-5.03,97.44637,-7.203,-5.997,92,0,109.1,13.84,-6.48,104.5
"2009-10-11 00:40:30",1316527,2.106,136.2,5.797,1.153,-3.053,97.44637,-7.203,-5.861,92.1,0,109.1,13.84,-6.48,98.2
"2009-10-11 00:41:00",1316528,2.422,159.3,11.22,1.079,-2.496,97.44637,-7.203,-5.852,92.1,0,109.1,13.84,-6.48,121.3
"2009-10-11 00:41:30",1316529,2.427,186.3,9.18,0.987,-2.042,97.44637,-7.203,-5.925,92.1,0,109.1,13.84,-6.48,148.3
"2009-10-11 00:42:00",1316530,1.81,204.8,8.58,1.258,-4.224,97.44637,-7.203,-5.995,92,0,109.1,13.84,-6.48,166.8
"2009-10-11 00:42:30",1316531,1.077,211.2,6.93,0.708,-5.95,97.44637,-7.203,-6.002,92,0,109.1,13.84,-6.48,173.2
"2009-10-11 00:43:00",1316532,2.366,211.7,10.61,1.148,-3.051,97.44637,-7.203,-5.87,92.1,0,109.1,13.84,-6.48,173.7
"2009-10-11 00:43:30",1316533,1.803,198.1,5.452,1.054,-4.424,97.44637,-7.203,-6.037,91.9,0,109.1,13.83,-6.48,160.1
"2009-10-11 00:44:00",1316534,3.06,204.2,12.65,0.785,-1.599,97.44637,-7.203,-5.85,92.1,0,109.1,13.83,-6.48,166.2
"2009-10-11 00:44:30",1316535,2.009,211,8.17,1.157,-3.169,97.44637,-7.203,-5.867,92.1,0,109.1,13.83,-6.48,173.0
"2009-10-11 00:45:00",1316536,1.676,184.6,16.63,1.134,-3.703,97.44637,-7.203,-5.971,92,0,109.1,13.83,-6.48,146.6
"2009-10-11 00:45:30",1316537,2.004,176.6,12.68,1.221,-3.81,97.44637,-7.203,-5.922,92,0,109.1,13.83,-6.48,138.6
"2009-10-11 00:46:00",1316538,2.162,188,8.26,1.221,-3.371,97.44637,-7.203,-5.895,92,0,109.1,13.83,-6.48,150.0
"2009-10-11 00:46:30",1316539,1.688,187,5.269,1.219,-4.301,97.44637,-7.203,-6.025,91.9,0,109.1,13.83,-6.48,149.0
"2009-10-11 00:47:00",1316540,1.929,196.7,6.906,1.148,-2.817,97.44637,-7.203,-5.837,92.1,0,109.1,13.83,-6.48,158.7
"2009-10-11 00:47:30",1316541,2.064,200.4,11.93,1.056,-2.479,97.44637,-7.203,-5.91,92,0,109.1,13.83,-6.48,162.4
"2009-10-11 00:48:00",1316542,0.529,175.9,11.13,0.711,-4.565,97.44637,-7.203,-5.902,92.1,0,109.1,13.84,-6.48,137.9
"2009-10-11 00:48:30",1316543,0.494,167.3,9.06,0.116,-5.887,97.44637,-7.203,-6.087,91.9,0,109.1,13.86,-6.48,129.3
"2009-10-11 00:49:00",1316544,1.793,172.1,10.34,1.133,-4.586,97.44637,-7.203,-6.022,92,0,109.1,13.84,-6.48,134.1
"2009-10-11 00:49:30",1316545,2.512,187.4,10.28,1.09,-2.192,97.44637,-7.203,-5.837,92.2,0,109.1,13.84,-6.48,149.4
"2009-10-11 00:50:00",1316546,2.434,196.7,9.63,1.124,-2.596,97.44637,-7.203,-5.892,92.1,0,109.1,13.84,-6.48,158.7
"2009-10-11 00:50:30",1316547,2.553,210.8,6.897,0.997,-2.339,97.44637,-7.203,-5.846,92.2,0,109.1,13.84,-6.48,172.8
"2009-10-11 00:51:00",1316548,2.116,210.8,6.004,1.125,-3.29,97.44637,-7.203,-5.892,92.1,0,109.1,13.84,-6.48,172.8
"2009-10-11 00:51:30",1316549,0.56,194.5,3.479,0.079,-5.564,97.44637,-7.203,-6.065,92,0,109.1,13.87,-6.48,156.5
"2009-10-11 00:52:00",1316550,1.092,173,9.57,0.99,-5.057,97.44637,-7.203,-6.059,92,0,109.1,13.84,-6.48,135.0
"2009-10-11 00:52:30",1316551,1.738,177.9,5.941,1.225,-3.273,97.44694,-7.202,-5.91,92.1,0,109.1,13.84,-6.48,139.9
"2009-10-11 00:53:00",1316552,1.856,177.1,7.896,1.16,-3.215,97.44722,-7.201,-5.815,92.2,0,109.1,13.84,-6.47,139.1
"2009-10-11 00:53:30",1316553,1.351,169.4,3.653,1.014,-4.679,97.44807,-7.199,-5.903,92.1,0,109.1,13.84,-6.47,131.4
"2009-10-11 00:54:00",1316554,1.851,176.1,6.251,1.136,-3.458,97.45034,-7.193,-5.806,92.1,0,109.1,13.84,-6.47,138.1
"2009-10-11 00:54:30",1316555,2.168,208.1,17.39,1.005,-2.871,97.4529,-7.187,-5.868,92.1,0,109.1,13.84,-6.46,170.1
"2009-10-11 00:55:00",1316556,0.298,225.3,5.727,0.038,-6.61,97.45204,-7.189,-6.066,91.9,0,109.1,13.84,-6.46,187.3
"2009-10-11 00:55:30",1316557,1.11,241.8,8.75,1.112,-4.927,97.45148,-7.19,-5.973,92,0,109.1,13.84,-6.46,203.8
"2009-10-11 00:56:00",1316558,1.224,278.3,11.94,1.208,-4.497,97.45318,-7.186,-5.962,92,0,109.1,13.84,-6.46,240.3
"2009-10-11 00:56:30",1316559,0.973,284.9,11.86,1.098,-4.502,97.45347,-7.185,-5.924,92,0,109.1,13.84,-6.46,246.9
"2009-10-11 00:57:00",1316560,0.621,286.9,16.03,1.061,-4.865,97.45403,-7.184,-5.844,92.1,0,109,13.84,-6.46,248.9
"2009-10-11 00:57:30",1316561,0.641,256.8,20.86,1.052,-5.867,97.45488,-7.182,-6.009,91.9,0,109.1,13.84,-6.45,218.8
"2009-10-11 00:58:00",1316562,0.351,225.3,15.34,0.763,-6.699,97.45801,-7.174,-5.941,92,0,109,13.85,-6.45,187.3
"2009-10-11 00:58:30",1316563,1.223,212,14.52,1.213,-5.825,97.46028,-7.168,-6.043,91.9,0,109.1,13.84,-6.44,174.0
"2009-10-11 00:59:00",1316564,1.433,202.7,8.59,1.176,-4.254,97.46567,-7.154,-5.914,92.1,0,109.1,13.85,-6.43,164.7
"2009-10-11 00:59:30",1316565,0.532,169.4,6.851,0.067,-6.48,97.47276,-7.136,-6.04,92,0,109.1,13.87,-6.41,131.4
"2009-10-11 01:00:00",1316566,2.019,169.4,5.101,1.196,-2.762,97.47163,-7.139,-5.834,92.2,0,109.1,13.84,-6.41,131.4
"2009-10-11 01:00:30",1316567,2.217,171.3,6.231,0.849,-2.223,97.47787,-7.123,-5.796,92.3,0,109.1,13.84,-6.40,133.3
"2009-10-11 01:01:00",1316568,0.761,166.6,6.063,0.835,-5.314,97.47843,-7.122,-5.951,92.1,0,109.1,13.84,-6.39,128.6
"2009-10-11 01:01:30",1316569,0.748,178.2,7.828,0.866,-5.217,97.479,-7.12,-6.004,92.1,0,109.1,13.84,-6.39,140.2
"2009-10-11 01:02:00",1316570,1.543,197.9,8.81,1.175,-3.867,97.47928,-7.119,-5.861,92.2,0,109.1,13.84,-6.39,159.9
"2009-10-11 01:02:30",1316571,0.546,191.2,6.467,0.711,-4.466,97.479,-7.12,-5.874,92.2,0,109.1,13.84,-6.39,153.2
"2009-10-11 01:03:00",1316572,0.324,188.8,4.224,0.041,-5.136,97.47985,-7.118,-6,92.1,0,109.1,13.87,-6.39,150.8
"2009-10-11 01:03:30",1316573,2.073,191,6.9,1.148,-1.704,97.48042,-7.117,-5.745,92.3,0,109.1,13.84,-6.39,153.0
"2009-10-11 01:04:00",1316574,2.515,192.8,6.092,0.954,-1.875,97.48042,-7.117,-5.725,92.3,0,109.2,13.84,-6.39,154.8
"2009-10-11 01:04:30",1316575,1.996,190.2,12.83,1.025,-4.221,97.48013,-7.117,-5.933,92.1,0,109.1,13.84,-6.39,152.2
"2009-10-11 01:05:00",1316576,1.171,167.4,12.43,0.706,-5.711,97.48042,-7.117,-5.95,92.1,0,109.1,13.84,-6.39,129.4
"2009-10-11 01:05:30",1316577,2.067,187.5,9.18,1.285,-3.598,97.48042,-7.117,-5.838,92.2,0,109.1,13.84,-6.39,149.5
"2009-10-11 01:06:00",1316578,2.146,203,6.473,1.195,-3.66,97.48042,-7.117,-5.912,92.1,0,109.1,13.84,-6.39,165.0
"2009-10-11 01:06:30",1316579,2.209,210,8.87,1.156,-3.038,97.48042,-7.117,-5.79,92.2,0,109.1,13.85,-6.39,172.0
"2009-10-11 01:07:00",1316580,2.63,212.1,5.897,1.059,-2.431,97.48042,-7.117,-5.804,92.2,0,109.1,13.85,-6.39,174.1
"2009-10-11 01:07:30",1316581,2.4,214.8,5.107,1.091,-2.51,97.48042,-7.117,-5.819,92.2,0,109.1,13.84,-6.39,176.8
"2009-10-11 01:08:00",1316582,1.107,216.7,3.951,0.693,-5.936,97.48042,-7.117,-5.994,92,0,109.1,13.85,-6.39,178.7
"2009-10-11 01:08:30",1316583,1.485,206.4,11.83,0.986,-4.43,97.48042,-7.117,-5.826,92.2,0,109.1,13.84,-6.39,168.4
"2009-10-11 01:09:00",1316584,2.047,202.3,7.73,1.226,-3.39,97.48042,-7.117,-5.908,92.1,0,109.1,13.84,-6.39,164.3
"2009-10-11 01:09:30",1316585,1.806,205.5,8.56,1.001,-3.87,97.48042,-7.117,-5.82,92.2,0,109.1,13.85,-6.39,167.5
"2009-10-11 01:10:00",1316586,3.066,202.5,5.618,1.011,-1.395,97.48042,-7.117,-5.708,92.3,0,109.1,13.84,-6.39,164.5
"2009-10-11 01:10:30",1316587,2.76,208.5,7.272,1.138,-2.607,97.48042,-7.117,-5.79,92.2,0,109.1,13.84,-6.39,170.5
"2009-10-11 01:11:00",1316588,1.991,190.2,7.015,1.141,-3.571,97.4807,-7.116,-5.824,92.1,0,109.1,13.84,-6.39,152.2
"2009-10-11 01:11:30",1316589,0.931,179.3,11.56,0.925,-4.935,97.4807,-7.116,-5.842,92.1,0,109.1,13.84,-6.39,141.3
"2009-10-11 01:12:00",1316590,1.549,198.1,5.996,1.194,-4.297,97.4807,-7.116,-5.909,92,0,109.1,13.84,-6.39,160.1
"2009-10-11 01:12:30",1316591,2.226,210.8,6.993,1.031,-2.423,97.48042,-7.117,-5.828,92,0,109.1,13.84,-6.39,172.8
"2009-10-11 01:13:00",1316592,0.76,197.3,7.207,0.871,-5.334,97.48042,-7.117,-6.012,91.8,0,109.1,13.85,-6.39,159.3
"2009-10-11 01:13:30",1316593,1.272,206.6,7.383,1.157,-4.458,97.48042,-7.117,-5.848,92,0,109.1,13.84,-6.39,168.6
"2009-10-11 01:14:00",1316594,1.805,207.8,7.08,1.086,-3.308,97.4807,-7.116,-5.835,92,0,109.1,13.85,-6.39,169.8
"2009-10-11 01:14:30",1316595,0.046,191.3,11.08,0.055,-6.097,97.48042,-7.117,-5.972,91.9,0,109.1,13.87,-6.39,153.3
"2009-10-11 01:15:00",1316596,-0.096,195.8,12.42,0.034,-6.449,97.48042,-7.117,-6.034,91.8,0,109.1,13.87,-6.39,157.8
"2009-10-11 01:15:30",1316597,-0.067,174.8,16.06,0.059,-7.259,97.48125,-7.114,-6.031,91.9,0,109.1,13.87,-6.39,136.8
"2009-10-11 01:16:00",1316598,1.107,163.7,15.33,1.206,-5.326,97.4807,-7.116,-5.886,92,0,109.1,13.85,-6.39,125.7
"2009-10-11 01:16:30",1316599,1.342,178.1,11.99,1.18,-4.343,97.48042,-7.117,-5.817,92.1,0,109.1,13.85,-6.39,140.1
"2009-10-11 01:17:00",1316600,0.781,168.7,17.77,1.074,-5.641,97.48042,-7.117,-5.968,92,0,109.1,13.84,-6.39,130.7
"2009-10-11 01:17:30",1316601,0.836,176.1,20.51,1.06,-5.189,97.4807,-7.116,-5.976,92,0,109.1,13.84,-6.39,138.1
"2009-10-11 01:18:00",1316602,2.476,204.5,6.253,1.01,-2.923,97.48042,-7.117,-5.789,92.2,0,109.1,13.84,-6.39,166.5
"2009-10-11 01:18:30",1316603,1.827,202.9,6.337,1.13,-4.131,97.48042,-7.117,-5.924,92.1,0,109.1,13.84,-6.39,164.9
"2009-10-11 01:19:00",1316604,0.758,209.5,5.327,0.151,-6.282,97.48097,-7.115,-5.998,92,0,109.1,13.87,-6.39,171.5
"2009-10-11 01:19:30",1316605,2.038,209.8,5.903,1.194,-3.072,97.48042,-7.117,-5.767,92.2,0,109,13.84,-6.39,171.8
"2009-10-11 01:20:00",1316606,2.373,219.3,7.812,1.08,-2.692,97.48071,-7.116,-5.784,92.2,0,109.1,13.84,-6.39,181.3
"2009-10-11 01:20:30",1316607,1.754,202.5,11.48,1.145,-2.857,97.48042,-7.117,-5.88,92.1,0,109.1,13.84,-6.39,164.5
"2009-10-11 01:21:00",1316608,1.545,196.9,11.83,1.157,-4.195,97.48042,-7.117,-5.855,92.1,0,109.1,13.84,-6.39,158.9
"2009-10-11 01:21:30",1316609,1.962,211.4,6.141,1.16,-3.489,97.48042,-7.117,-5.739,92.1,0,109.1,13.85,-6.39,173.4
"2009-10-11 01:22:00",1316610,1.962,219,6.174,1.235,-4.063,97.48127,-7.114,-5.882,92,0,109.1,13.85,-6.39,181.0
"2009-10-11 01:22:30",1316611,1.97,217.8,9.91,1.212,-3.586,97.48382,-7.108,-5.836,92,0,109.1,13.85,-6.38,179.8
"2009-10-11 01:23:00",1316612,1.875,215.1,18.57,1.182,-3.121,97.48496,-7.105,-5.801,92.1,0,109.1,13.85,-6.38,177.1
"2009-10-11 01:23:30",1316613,2.305,236.9,6.494,0.721,-2.08,97.48467,-7.106,-5.792,92,0,109.1,13.85,-6.38,198.9
"2009-10-11 01:24:00",1316614,0.625,218.1,9.87,0.945,-5.827,97.48042,-7.117,-5.914,91.8,0,109.1,13.85,-6.39,180.1
"2009-10-11 01:24:30",1316615,1.982,223.4,17.36,0.901,-2.968,97.48042,-7.117,-5.899,91.8,0,109.1,13.85,-6.39,185.4
"2009-10-11 01:25:00",1316616,0.142,215.9,18.63,0.648,-5.213,97.48042,-7.117,-5.867,91.8,0,109.1,13.85,-6.39,177.9
"2009-10-11 01:25:30",1316617,0.622,145.7,28.01,1.098,-5.408,97.48042,-7.117,-5.996,91.7,0,109.1,13.85,-6.39,107.7
"2009-10-11 01:26:00",1316618,-0.093,77.15,17.42,0.007,-6.671,97.48042,-7.117,-6.019,91.7,0,109.1,13.88,-6.39,39.2
"2009-10-11 01:26:30",1316619,0.984,56.98,5.949,1.187,-5.562,97.4807,-7.116,-5.961,91.7,0,109.1,13.85,-6.39,19.0
"2009-10-11 01:27:00",1316620,1.067,51.51,6.068,1.159,-5.281,97.48042,-7.117,-5.854,91.9,0,109.1,13.85,-6.39,13.5
"2009-10-11 01:27:30",1316621,1.24,53.82,9.21,1.182,-4.816,97.48042,-7.117,-5.924,91.9,0,109.1,13.85,-6.39,15.8
"2009-10-11 01:28:00",1316622,0.499,44.68,5.691,0.885,-6.388,97.48042,-7.117,-5.961,91.9,0,109.1,13.85,-6.39,6.7
"2009-10-11 01:28:30",1316623,1.316,45.18,8.38,1.164,-4.657,97.48042,-7.117,-5.836,92,0,109.1,13.85,-6.39,7.2
"2009-10-11 01:29:00",1316624,1.694,80.7,24.12,1.02,-4.172,97.48042,-7.117,-5.88,92,0,109.1,13.85,-6.39,42.7
"2009-10-11 01:29:30",1316625,0.054,106.4,6.031,0.435,-7.742,97.4807,-7.116,-6.009,91.9,0,109.1,13.85,-6.39,68.4
"2009-10-11 01:30:00",1316626,0.114,122.8,3,0.057,-7.545,97.4807,-7.116,-6.003,91.9,0,109.1,13.89,-6.39,84.8
"2009-10-11 01:30:30",1316627,1.033,133.5,6.624,1.168,-5.567,97.48097,-7.115,-5.852,92.1,0,109.1,13.85,-6.39,95.5
"2009-10-11 01:31:00",1316628,1.657,149.8,10.71,1.172,-4.114,97.48127,-7.114,-5.787,92.1,0,109.1,13.85,-6.39,111.8
"2009-10-11 01:31:30",1316629,0.746,159,11.36,1.029,-4.753,97.48183,-7.113,-5.926,92,0,109.1,13.85,-6.39,121.0
"2009-10-11 01:32:00",1316630,0.474,171.9,14.38,0.856,-3.462,97.48325,-7.109,-5.885,92,0,109.1,13.85,-6.38,133.9
"2009-10-11 01:32:30",1316631,1.199,174.3,6.775,1.123,-2.765,97.48694,-7.1,-5.828,92,0,109.1,13.85,-6.37,136.3
"2009-10-11 01:33:00",1316632,1.312,175.7,8.59,1.195,-2.87,97.48892,-7.095,-5.793,92.1,0,109.1,13.85,-6.37,137.7
"2009-10-11 01:33:30",1316633,1.209,177.2,10.44,1.222,-3.738,97.49033,-7.091,-5.855,92,0,109.1,13.85,-6.36,139.2
"2009-10-11 01:34:00",1316634,0.135,162.2,11.87,0.085,-6.781,97.49177,-7.088,-5.969,91.9,0,109.1,13.87,-6.36,124.2
"2009-10-11 01:34:30",1316635,1.161,158.4,5.424,1.148,-5.501,97.4977,-7.073,-5.897,91.9,0,109.1,13.85,-6.35,120.4
"2009-10-11 01:35:00",1316636,1.602,156.6,8.28,1.179,-3.773,97.50254,-7.06,-5.701,92.1,0,109.1,13.85,-6.33,118.6
"2009-10-11 01:35:30",1316637,1.233,149.1,7.285,1.088,-4.82,97.5068,-7.049,-5.943,91.9,0,109.1,13.85,-6.32,111.1
"2009-10-11 01:36:00",1316638,1.302,160.9,5.741,1.175,-4.187,97.51106,-7.039,-5.71,92.1,0,109.1,13.85,-6.31,122.9
"2009-10-11 01:36:30",1316639,1.414,170.5,12.47,1.268,-3.275,97.5136,-7.032,-5.838,91.9,0,109.1,13.85,-6.30,132.5
"2009-10-11 01:37:00",1316640,0.301,73.61,26.32,0.827,-5.851,97.51389,-7.031,-5.802,91.9,0,109.1,13.85,-6.30,35.6
"2009-10-11 01:37:30",1316641,1.201,42.65,7.984,1.139,-4.903,97.51418,-7.031,-5.89,91.8,0,109.1,13.85,-6.30,4.7
"2009-10-11 01:38:00",1316642,0.758,34.2,7.371,1.088,-5.807,97.51446,-7.03,-5.911,91.8,0,109.1,13.85,-6.30,356.2
"2009-10-11 01:38:30",1316643,0.801,36.31,6.764,0.964,-6.443,97.51417,-7.031,-5.862,91.9,0,109.1,13.85,-6.30,358.3
"2009-10-11 01:39:00",1316644,1.437,46.74,4.145,1.075,-5.861,97.51447,-7.03,-5.937,91.8,0,109.1,13.85,-6.30,8.7
"2009-10-11 01:39:30",1316645,2.013,51.47,7.003,1.307,-4.736,97.51502,-7.029,-5.754,92,0,109.1,13.86,-6.30,13.5
"2009-10-11 01:40:00",1316646,3.063,58.75,5.107,1.035,-2.946,97.51447,-7.03,-5.697,92.1,0,109.1,13.85,-6.30,20.8
"2009-10-11 01:40:30",1316647,3.295,62.89,4.499,0.839,-2.352,97.51447,-7.03,-5.722,92.1,0,109.1,13.85,-6.30,24.9
"2009-10-11 01:41:00",1316648,2.82,61.6,4.943,1.129,-3.451,97.5153,-7.028,-5.725,92.1,0,109.1,13.85,-6.30,23.6
"2009-10-11 01:41:30",1316649,2.18,55.79,7.751,1.189,-4.865,97.51502,-7.029,-5.856,91.9,0,109.1,13.85,-6.30,17.8
"2009-10-11 01:42:00",1316650,1.661,49.98,5.404,1.017,-5.832,97.51447,-7.03,-5.802,92,0,109.1,13.85,-6.30,12.0
"2009-10-11 01:42:30",1316651,1.818,49.16,5.816,1.112,-5.75,97.5153,-7.028,-5.919,91.9,0,109.1,13.85,-6.30,11.2
"2009-10-11 01:43:00",1316652,2.958,53.89,4.879,0.824,-2.82,97.51696,-7.024,-5.686,92.1,0,109.1,13.85,-6.30,15.9
"2009-10-11 01:43:30",1316653,3.262,59.5,4.401,0.315,-1.887,97.5153,-7.028,-5.648,92.1,0,109.1,13.85,-6.30,21.5
"2009-10-11 01:44:00",1316654,2.683,60.54,5.652,1.075,-3.423,97.5164,-7.025,-5.719,92,0,109.1,13.85,-6.30,22.5
"2009-10-11 01:44:30",1316655,2.006,61.14,5.189,1.183,-4.74,97.51669,-7.024,-5.818,91.9,0,109.1,13.85,-6.30,23.1
"2009-10-11 01:45:00",1316656,1.506,64.19,6.143,1.01,-5.144,97.51554,-7.027,-5.782,91.9,0,109.1,13.85,-6.30,26.2